Notices

What's New in latest Release from April 7th, 2021:

- Updated Glossary, including Speed of Maximum Gust, and Total Hourly Precipitation

- Updated national and regional climate services offices contacts and prices information

- Addition of station inventory lists for 1981-2010, 1971-2000, and 1961-1990 Normals.

If you haven't already, please take our survey and provide feedback about our website: https://eccc.sondage-survey.ca/f/LanguageSelection.aspx?s=442ca660-fcf1-47c0-95a9-59707d6fd709

Hourly Data Report for November 01, 2006

TORONTO CITY
ONTARIO

43°40'00.000" N
79°24'00.000" W
112.50 m
6158355
71508
XTO

Download Data

Hourly Data (November 2006)
Hourly Data Report for November 1, 2006
TIME
LST
Temp Definition
°C
Dew Point Definition
°C
Rel Hum Definition
%
Precip. Amount Definition
mm

Wind Dir Definition
10's deg

Wind Spd Definition
km/h
Visibility Definition
km
Stn Press Definition
kPa
Hmdx Definition


Wind Chill Definition


Weather Definition


00:00 6.5 2.0 73   LegendMM LegendMM   100.17     LegendNANA
01:00 5.8 1.7 75   LegendMM LegendMM   100.21     LegendNANA
02:00 5.6 0.6 70   LegendMM LegendMM   100.23     LegendNANA
03:00 4.8 0.3 73   LegendMM LegendMM   100.26     LegendNANA
04:00 3.9 -0.4 73   LegendMM LegendMM   100.34     LegendNANA
05:00 3.6 -0.8 73   LegendMM LegendMM   100.43     LegendNANA
06:00 3.9 -0.2 75   LegendMM LegendMM   100.45     LegendNANA
07:00 4.0 0.0 75   LegendMM LegendMM   100.43     LegendNANA
08:00 4.4 0.3 75   LegendMM LegendMM   100.50     LegendNANA
09:00 4.8 -0.5 68   LegendMM LegendMM   100.51     LegendNANA
10:00 5.0 -0.8 66   LegendMM LegendMM   100.45     LegendNANA
11:00 5.9 -0.7 63   LegendMM LegendMM   100.44     LegendNANA
12:00 7.1 0.8 64   LegendMM LegendMM   100.34     LegendNANA
13:00 7.9 0.9 61   LegendMM LegendMM   100.28     LegendNANA
14:00 7.9 0.3 59   LegendMM LegendMM   100.21     LegendNANA
15:00 8.6 -2.2 47   LegendMM LegendMM   100.20     LegendNANA
16:00 8.2 -2.3 47   LegendMM LegendMM   100.19     LegendNANA
17:00 7.6 -3.7 45   LegendMM LegendMM   100.20     LegendNANA
18:00 6.7 -3.3 49   LegendMM LegendMM   100.23     LegendNANA
19:00 6.3 -2.8 52   LegendMM LegendMM   100.27     LegendNANA
20:00 6.2 -2.5 54   LegendMM LegendMM   100.23     LegendNANA
21:00 5.9 -2.0 57   LegendMM LegendMM   100.25     LegendNANA
22:00 4.5 -3.1 58   LegendMM LegendMM   100.28     LegendNANA
23:00 3.5 -3.4 61   LegendMM LegendMM   100.29     LegendNANA

Notes on Data Quality.

Legend

  • E = Estimated
  • M = Missing
  • NA = Not Available*
  • [empty] = Indicates an unobserved value
Date modified: